DW8241 Weather Reports


Display with metric or nautical units.
time (UTC)temp
F
wind
direction
speed
MPH
gust
MPH
rain 1hr
in
rain 24hr
in
rain mn
in
humidity
%
barometer
mb
20260509040032 47 48 2.0 3.0 0.02 0.02 0.02 84 1004.9
20260509034529 47 49 0.0 4.0 0.02 0.02 0.02 81 1004.7
20260509033029 47 58 0.0 5.0 0.02 0.02 0.02 80 1004.9
20260509031534 48 44 2.0 10.0 0.02 0.02 0.02 79 1005.0
20260509030030 50 41 4.0 13.0 0.00 0.00 0.00 73 1005.0
20260509024527 54 17 6.0 13.0 0.00 0.00 0.00 64 1004.9
20260509023029 56 336 7.0 20.0 0.00 0.00 0.00 55 1004.4
20260509021533 57 317 4.0 12.0 0.00 0.00 0.00 45 1003.8
20260509020124 57 326 17.0 27.0 0.00 0.00 0.00 54 1003.0
20260509014526 60 294 10.0 22.0 0.00 0.00 0.00 47 1002.4
20260509013036 60 323 2.0 5.0 0.00 0.00 0.00 46 1001.5
20260509011523 61 321 2.0 5.0 0.00 0.00 0.00 43 1001.3
20260509010023 62 324 3.0 8.0 0.00 0.00 0.00 42 1001.3
20260509004522 63 333 4.0 10.0 0.00 0.00 0.00 41 1001.5
20260509003020 64 16 6.0 18.0 0.00 0.00 0.00 39 1001.6
20260509001518 64 355 6.0 14.0 0.00 0.00 0.00 39 1001.7
20260509000016 64 358 9.0 18.0 0.00 0.00 0.00 38 1001.9
20260508234514 65 317 8.0 18.0 0.00 0.00 0.00 37 1002.1
20260508233016 65 1 9.0 17.0 0.00 0.00 0.00 38 1002.2
20260508231510 64 295 9.0 22.0 0.00 0.00 0.00 39 1002.4
20260508230010 64 294 12.0 23.0 0.00 0.00 0.00 38 1002.5
20260508224514 66 324 12.0 20.0 0.00 0.00 0.00 39 1002.6
20260508223008 66 342 9.0 18.0 0.00 0.00 0.00 38 1002.9
20260508221504 64 360 10.0 20.0 0.00 0.00 0.00 39 1003.2
20260508220002 64 326 8.0 16.0 0.00 0.00 0.00 38 1003.3
20260508214602 63 316 5.0 12.0 0.00 0.00 0.00 39 1003.5
20260508213100 65 301 11.0 18.0 0.00 0.00 0.00 37 1003.6
20260508211558 64 286 8.0 21.0 0.00 0.00 0.00 39 1003.8
20260508210056 64 349 8.0 18.0 0.00 0.00 0.00 37 1003.9
20260508204557 63 359 8.0 14.0 0.00 0.00 0.00 37 1004.2
20260508203051 62 356 10.0 16.0 0.00 0.00 0.00 38 1004.4
20260508201549 62 302 7.0 18.0 0.00 0.00 0.00 40 1004.4
20260508200105 61 332 9.0 19.0 0.00 0.00 0.00 37 1004.5
20260508194545 61 331 11.0 17.0 0.00 0.00 0.00 37 1004.9
20260508193107 61 41 11.0 19.0 0.00 0.00 0.00 36 1004.8
20260508191545 60 360 9.0 21.0 0.00 0.00 0.00 37 1004.9
20260508190041 61 333 13.0 22.0 0.00 0.00 0.00 37 1005.0
20260508184541 60 340 12.0 19.0 0.00 0.00 0.00 37 1005.1
20260508183054 60 27 11.0 20.0 0.00 0.00 0.00 37 1005.2
20260508181552 60 342 10.0 21.0 0.00 0.00 0.00 38 1005.1
20260508180041 59 328 11.0 25.0 0.00 0.00 0.00 39 1005.2
20260508174539 60 315 10.0 21.0 0.00 0.00 0.00 39 1005.4
20260508173038 60 330 10.0 20.0 0.00 0.00 0.00 41 1005.1
20260508171537 60 319 12.0 25.0 0.00 0.00 0.00 41 1004.9
20260508170036 61 318 9.0 24.0 0.00 0.00 0.00 41 1004.9
20260508164538 60 345 10.0 24.0 0.00 0.00 0.00 39 1004.9
20260508163034 60 332 10.0 22.0 0.00 0.00 0.00 44 1004.8
20260508161531 59 334 11.0 22.0 0.00 0.00 0.00 42 1004.9
20260508160029 59 325 12.0 20.0 0.00 0.00 0.00 41 1005.0
20260508154543 59 308 12.0 23.0 0.00 0.00 0.00 42 1005.0
20260508153027 57 313 13.0 19.0 0.00 0.00 0.00 37 1004.9
20260508151525 58 309 12.0 19.0 0.00 0.00 0.00 35 1004.9
20260508150020 57 273 9.0 15.0 0.00 0.00 0.00 39 1004.9
20260508144517 56 271 8.0 14.0 0.00 0.00 0.00 43 1005.0
20260508143016 54 286 10.0 13.0 0.00 0.00 0.00 44 1005.2
20260508141510 52 269 7.0 14.0 0.00 0.00 0.00 46 1005.3
20260508140006 51 250 0.0 7.0 0.00 0.00 0.00 52 1005.6
20260508134504 49 250 4.0 8.0 0.00 0.00 0.00 52 1005.6
20260508133101 48 233 0.0 0.0 0.00 0.00 0.00 57 1005.7
20260508131552 46 239 0.0 0.0 0.00 0.00 0.00 61 1005.8
20260508130048 44 240 0.0 0.0 0.00 0.00 0.00 65 1005.9
20260508124543 42 234 0.0 0.0 0.00 0.00 0.00 66 1005.8
20260508123048 41 264 0.0 0.0 0.00 0.00 0.00 66 1005.9
20260508121537 41 231 0.0 0.0 0.00 0.00 0.00 67 1005.9
20260508120036 40 250 0.0 0.0 0.00 0.00 0.00 67 1006.0
20260508114530 38 240 0.0 0.0 0.00 0.00 0.00 72 1006.1
20260508113030 37 231 0.0 0.0 0.00 0.00 0.00 72 1006.1
20260508111535 36 218 0.0 0.0 0.00 0.00 0.00 74 1006.2
20260508110027 38 239 0.0 6.0 0.00 0.00 0.00 70 1006.3
20260508104526 36 229 0.0 0.0 0.00 0.00 0.00 73 1006.4
20260508103028 38 236 0.0 0.0 0.00 0.00 0.00 69 1006.4
20260508101524 39 241 0.0 0.0 0.00 0.00 0.00 66 1006.4
20260508100022 40 233 0.0 0.0 0.00 0.00 0.00 66 1006.4
20260508094516 39 248 0.0 0.0 0.00 0.00 0.00 69 1006.6
20260508093017 38 226 0.0 0.0 0.00 0.00 0.00 71 1006.9
20260508091512 37 233 0.0 0.0 0.00 0.00 0.00 70 1007.0
20260508090019 37 219 0.0 0.0 0.00 0.00 0.00 69 1007.1
20260508084509 37 245 0.0 0.0 0.00 0.00 0.00 70 1007.1
20260508083009 38 245 0.0 0.0 0.00 0.00 0.00 69 1007.3
20260508081503 37 245 0.0 0.0 0.00 0.00 0.00 72 1007.5
20260508080058 36 245 0.0 0.0 0.00 0.00 0.00 74 1007.5
20260508074556 36 222 0.0 0.0 0.00 0.00 0.00 77 1007.8
20260508073109 36 240 0.0 0.0 0.00 0.00 0.00 74 1008.0
20260508071555 36 237 0.0 0.0 0.00 0.00 0.00 72 1008.1
20260508070051 36 237 0.0 0.0 0.00 0.00 0.00 69 1008.2
20260508064552 34 232 0.0 0.0 0.00 0.00 0.00 71 1008.4
20260508063051 33 232 0.0 0.0 0.00 0.00 0.00 73 1008.5
20260508061546 34 226 0.0 4.0 0.00 0.00 0.00 72 1008.5
20260508060059 31 210 0.0 0.0 0.00 0.00 0.00 79 1008.6
20260508054539 32 221 0.0 0.0 0.00 0.00 0.00 79 1008.6
20260508053037 33 323 0.0 0.0 0.00 0.00 0.00 76 1008.8
20260508051540 33 323 0.0 0.0 0.00 0.00 0.00 74 1008.8
20260508050030 35 323 0.0 0.0 0.00 0.00 0.00 71 1008.9
20260508044529 37 323 0.0 0.0 0.00 0.00 0.00 64 1008.9
20260508043028 38 323 0.0 0.0 0.00 0.00 0.00 59 1008.9
20260508041527 39 323 0.0 0.0 0.00 0.00 0.00 59 1008.9